This demonstration page uses our WeatherBlox Daily Observations layout. Learn more.

Left ArrowRight Arrow

Hourly Observations for November 6, 2018

Temp ( °F °C ) Dew Point ( °F °C ) Humidity (%) Winds ( mph kmh ) Pressure ( in mb ) Visibility ( mi km ) Precip ( " mm )
12:52 am 00:52 Cloudy 44 6.7 35 1.7 71 71 NW 16 26 29.75 1008 10 16 0.00 0.00
1:52 am 01:52 Mostly Cloudy 42 5.6 32 0 68 68 NW 22 35 29.77 1008 10 16 0.00 0.00
2:42 am 02:42 Partly Cloudy 41 5 32 0 70 70 WNW 12 19 29.83 1010 10 16 0.00 0.00
2:52 am 02:52 Partly Cloudy 40 4.4 32 0 73 73 NW 12 19 29.80 1009 10 16 0.00 0.00
3:52 am 03:52 Clear 39 3.9 31 -0.6 73 73 WNW 14 22 29.83 1010 10 16 0.00 0.00
4:52 am 04:52 Clear 38 3.3 29 -1.7 70 70 WNW 13 20 29.86 1011 10 16 0.00 0.00
5:52 am 05:52 Clear 36 2.2 28 -2.2 73 73 NW 14 22 29.89 1012 10 16 0.00 0.00
6:52 am 06:52 Clear 35 1.7 27 -2.8 72 72 NW 14 22 29.91 1013 10 16 0.00 0.00
7:52 am 07:52 Sunny 36 2.2 27 -2.8 70 70 NW 13 20 29.95 1014 10 16 0.00 0.00
8:52 am 08:52 Mostly Sunny 39 3.9 27 -2.8 62 62 NW 18 30 29.97 1015 10 16 0.00 0.00
9:52 am 09:52 Partly Cloudy 41 5 28 -2.2 60 60 NW 18 30 30.00 1016 10 16 0.00 0.00
10:52 am 10:52 Partly Cloudy 43 6.1 29 -1.7 58 58 NW 16 26 30.00 1016 10 16 0.00 0.00
11:52 am 11:52 Partly Cloudy 44 6.7 29 -1.7 55 55 W 17 28 30.00 1016 10 16 0.00 0.00
12:52 pm 12:52 Partly Cloudy 45 7.2 28 -2.2 52 52 WNW 15 24 29.99 1016 10 16 0.00 0.00
1:52 pm 13:52 Partly Cloudy 46 7.8 29 -1.7 51 51 WNW 15 24 29.98 1015 10 16 0.00 0.00
2:52 pm 14:52 Partly Cloudy 45 7.2 28 -2.2 52 52 WNW 15 24 30.00 1016 10 16 0.00 0.00
3:52 pm 15:52 Partly Cloudy 45 7.2 27 -2.8 49 49 NW 16 26 30.02 1017 10 16 0.00 0.00
4:52 pm 16:52 Mostly Sunny 42 5.6 27 -2.8 55 55 NW 10 17 30.04 1017 10 16 0.00 0.00
5:52 pm 17:52 Clear 37 2.8 28 -2.2 70 70 NNW 6 9 30.07 1018 10 16 0.00 0.00
6:52 pm 18:52 Clear 36 2.2 28 -2.2 73 73 NNE 6 9 30.09 1019 10 16 0.00 0.00
7:52 pm 19:52 Clear 35 1.7 28 -2.2 76 76 Calm 30.11 1020 10 16 0.00 0.00
8:52 pm 20:52 Clear 31 -0.6 28 -2.2 89 89 NNW 6 9 30.13 1020 10 16 0.00 0.00
9:52 pm 21:52 Clear 30 -1.1 27 -2.8 88 88 NNW 5 7 30.15 1021 10 16 0.00 0.00
10:52 pm 22:52 Clear 29 -1.7 26 -3.3 89 89 NNW 6 9 30.18 1022 10 16 0.00 0.00
11:52 pm 23:52 Clear 30 -1.1 27 -2.8 88 88 NNW 8 13 30.18 1022 10 16 0.00 0.00

Powered by AerisWeather